owner,sensor,date,latitude,longitude,air_temperature,qcFlag 
COMPS,ioos:station:USF.COMPS:ARP:1,2010-04-01T00:00:00Z,28.4330,-82.6670,17.31,1111122 
COMPS,ioos:station:USF.COMPS:ARP:1,2010-04-01T00:06:00Z,28.4330,-82.6670,17.34,1111122 
COMPS,ioos:station:USF.COMPS:ARP:1,2010-04-01T00:12:00Z,28.4330,-82.6670,17.33,1111122 
COMPS,ioos:station:USF.COMPS:ARP:1,2010-04-01T00:18:00Z,28.4330,-82.6670,17.28,1111122 
COMPS,ioos:station:USF.COMPS:ARP:1,2010-04-01T00:24:00Z,28.4330,-82.6670,17.39,1111122 
COMPS,ioos:station:USF.COMPS:ARP:1,2010-04-01T00:30:00Z,28.4330,-82.6670,17.33,1111122 
COMPS,ioos:station:USF.COMPS:ARP:1,2010-04-01T00:36:00Z,28.4330,-82.6670,17.33,1111122 
COMPS,ioos:station:USF.COMPS:ARP:1,2010-04-01T00:42:00Z,28.4330,-82.6670,17.25,1111122 
COMPS,ioos:station:USF.COMPS:ARP:1,2010-04-01T00:48:00Z,28.4330,-82.6670,17.23,1111122 
COMPS,ioos:station:USF.COMPS:ARP:1,2010-04-01T00:54:00Z,28.4330,-82.6670,17.26,1111122 
COMPS,ioos:station:USF.COMPS:ARP:1,2010-04-01T01:00:00Z,28.4330,-82.6670,17.21,1111122 
COMPS,ioos:station:USF.COMPS:ARP:1,2010-04-01T01:06:00Z,28.4330,-82.6670,17.22,1111122 
COMPS,ioos:station:USF.COMPS:ARP:1,2010-04-01T01:12:00Z,28.4330,-82.6670,17.4,1111122 
COMPS,ioos:station:USF.COMPS:ARP:1,2010-04-01T01:18:00Z,28.4330,-82.6670,17.36,1111122 
COMPS,ioos:station:USF.COMPS:ARP:1,2010-04-01T01:24:00Z,28.4330,-82.6670,17.37,1111122 
COMPS,ioos:station:USF.COMPS:ARP:1,2010-04-01T01:30:00Z,28.4330,-82.6670,17.24,1111122 
COMPS,ioos:station:USF.COMPS:ARP:1,2010-04-01T01:36:00Z,28.4330,-82.6670,17.3,1111122 
COMPS,ioos:station:USF.COMPS:ARP:1,2010-04-01T01:42:00Z,28.4330,-82.6670,17.29,1111122 
COMPS,ioos:station:USF.COMPS:ARP:1,2010-04-01T01:48:00Z,28.4330,-82.6670,17.32,1111122 
COMPS,ioos:station:USF.COMPS:ARP:1,2010-04-01T01:54:00Z,28.4330,-82.6670,17.42,1111122 
COMPS,ioos:station:USF.COMPS:ARP:1,2010-04-01T02:00:00Z,28.4330,-82.6670,17.42,1111122 
COMPS,ioos:station:USF.COMPS:ARP:1,2010-04-01T02:06:00Z,28.4330,-82.6670,17.37,1111122 
COMPS,ioos:station:USF.COMPS:ARP:1,2010-04-01T02:12:00Z,28.4330,-82.6670,17.35,1111122 
COMPS,ioos:station:USF.COMPS:ARP:1,2010-04-01T02:18:00Z,28.4330,-82.6670,17.36,1111122 
COMPS,ioos:station:USF.COMPS:ARP:1,2010-04-01T02:24:00Z,28.4330,-82.6670,17.37,1111122 
COMPS,ioos:station:USF.COMPS:ARP:1,2010-04-01T02:30:00Z,28.4330,-82.6670,17.33,1111122 
COMPS,ioos:station:USF.COMPS:ARP:1,2010-04-01T02:36:00Z,28.4330,-82.6670,17.32,1111122 
COMPS,ioos:station:USF.COMPS:ARP:1,2010-04-01T02:42:00Z,28.4330,-82.6670,17.31,1111122 
COMPS,ioos:station:USF.COMPS:ARP:1,2010-04-01T02:48:00Z,28.4330,-82.6670,17.3,1111122 
COMPS,ioos:station:USF.COMPS:ARP:1,2010-04-01T02:54:00Z,28.4330,-82.6670,17.33,1111122 
COMPS,ioos:station:USF.COMPS:ARP:1,2010-04-01T03:00:00Z,28.4330,-82.6670,17.25,1111122 
COMPS,ioos:station:USF.COMPS:ARP:1,2010-04-01T03:06:00Z,28.4330,-82.6670,17.26,1111122 
COMPS,ioos:station:USF.COMPS:ARP:1,2010-04-01T03:12:00Z,28.4330,-82.6670,17.22,1111122 
COMPS,ioos:station:USF.COMPS:ARP:1,2010-04-01T03:18:00Z,28.4330,-82.6670,17.24,1111122 
COMPS,ioos:station:USF.COMPS:ARP:1,2010-04-01T03:24:00Z,28.4330,-82.6670,17.15,1111122 
COMPS,ioos:station:USF.COMPS:ARP:1,2010-04-01T03:30:00Z,28.4330,-82.6670,17.28,1111122 
COMPS,ioos:station:USF.COMPS:ARP:1,2010-04-01T03:36:00Z,28.4330,-82.6670,17.27,1111122 
COMPS,ioos:station:USF.COMPS:ARP:1,2010-04-01T03:42:00Z,28.4330,-82.6670,17.25,1111122 
COMPS,ioos:station:USF.COMPS:ARP:1,2010-04-01T03:48:00Z,28.4330,-82.6670,17.14,1111122 
COMPS,ioos:station:USF.COMPS:ARP:1,2010-04-01T03:54:00Z,28.4330,-82.6670,17.23,1111122 
COMPS,ioos:station:USF.COMPS:ARP:1,2010-04-01T04:00:00Z,28.4330,-82.6670,17.18,1111122 
COMPS,ioos:station:USF.COMPS:ARP:1,2010-04-01T04:06:00Z,28.4330,-82.6670,17.22,1111122 
COMPS,ioos:station:USF.COMPS:ARP:1,2010-04-01T04:12:00Z,28.4330,-82.6670,17.18,1111122 
COMPS,ioos:station:USF.COMPS:ARP:1,2010-04-01T04:18:00Z,28.4330,-82.6670,17.12,1111122 
COMPS,ioos:station:USF.COMPS:ARP:1,2010-04-01T04:24:00Z,28.4330,-82.6670,17.17,1111122 
COMPS,ioos:station:USF.COMPS:ARP:1,2010-04-01T04:30:00Z,28.4330,-82.6670,17.14,1111122 
COMPS,ioos:station:USF.COMPS:ARP:1,2010-04-01T04:36:00Z,28.4330,-82.6670,17.16,1111122 
COMPS,ioos:station:USF.COMPS:ARP:1,2010-04-01T04:42:00Z,28.4330,-82.6670,17.16,1111122 
COMPS,ioos:station:USF.COMPS:ARP:1,2010-04-01T04:48:00Z,28.4330,-82.6670,17.16,1111122 
COMPS,ioos:station:USF.COMPS:ARP:1,2010-04-01T04:54:00Z,28.4330,-82.6670,17.0,1111122 
COMPS,ioos:station:USF.COMPS:ARP:1,2010-04-01T05:00:00Z,28.4330,-82.6670,16.89,1111122 
COMPS,ioos:station:USF.COMPS:ARP:1,2010-04-01T05:06:00Z,28.4330,-82.6670,16.92,1111122 
COMPS,ioos:station:USF.COMPS:ARP:1,2010-04-01T05:12:00Z,28.4330,-82.6670,16.77,1111122 
COMPS,ioos:station:USF.COMPS:ARP:1,2010-04-01T05:18:00Z,28.4330,-82.6670,16.92,1111122 
COMPS,ioos:station:USF.COMPS:ARP:1,2010-04-01T05:24:00Z,28.4330,-82.6670,16.98,1111122 
COMPS,ioos:station:USF.COMPS:ARP:1,2010-04-01T05:30:00Z,28.4330,-82.6670,16.93,1111122 
COMPS,ioos:station:USF.COMPS:ARP:1,2010-04-01T05:36:00Z,28.4330,-82.6670,17.03,1111122 
COMPS,ioos:station:USF.COMPS:ARP:1,2010-04-01T05:42:00Z,28.4330,-82.6670,16.97,1111122 
COMPS,ioos:station:USF.COMPS:ARP:1,2010-04-01T05:48:00Z,28.4330,-82.6670,16.93,1111122 
COMPS,ioos:station:USF.COMPS:ARP:1,2010-04-01T05:54:00Z,28.4330,-82.6670,16.93,1111122 
COMPS,ioos:station:USF.COMPS:ARP:1,2010-04-01T06:00:00Z,28.4330,-82.6670,16.88,1111122 
COMPS,ioos:station:USF.COMPS:ARP:1,2010-04-01T06:06:00Z,28.4330,-82.6670,16.88,1111122 
COMPS,ioos:station:USF.COMPS:ARP:1,2010-04-01T06:12:00Z,28.4330,-82.6670,16.89,1111122 
COMPS,ioos:station:USF.COMPS:ARP:1,2010-04-01T06:18:00Z,28.4330,-82.6670,16.72,1111122 
COMPS,ioos:station:USF.COMPS:ARP:1,2010-04-01T06:24:00Z,28.4330,-82.6670,16.75,1111122 
COMPS,ioos:station:USF.COMPS:ARP:1,2010-04-01T06:30:00Z,28.4330,-82.6670,16.83,1111122 
COMPS,ioos:station:USF.COMPS:ARP:1,2010-04-01T06:36:00Z,28.4330,-82.6670,16.78,1111122 
COMPS,ioos:station:USF.COMPS:ARP:1,2010-04-01T06:42:00Z,28.4330,-82.6670,16.76,1111122 
COMPS,ioos:station:USF.COMPS:ARP:1,2010-04-01T06:48:00Z,28.4330,-82.6670,16.55,1111122 
COMPS,ioos:station:USF.COMPS:ARP:1,2010-04-01T06:54:00Z,28.4330,-82.6670,16.04,1111122 
COMPS,ioos:station:USF.COMPS:ARP:1,2010-04-01T07:00:00Z,28.4330,-82.6670,14.56,1111122 
COMPS,ioos:station:USF.COMPS:ARP:1,2010-04-01T07:06:00Z,28.4330,-82.6670,13.87,1111122 
COMPS,ioos:station:USF.COMPS:ARP:1,2010-04-01T07:12:00Z,28.4330,-82.6670,13.53,1111122 
COMPS,ioos:station:USF.COMPS:ARP:1,2010-04-01T07:18:00Z,28.4330,-82.6670,13.3,1111122 
COMPS,ioos:station:USF.COMPS:ARP:1,2010-04-01T07:24:00Z,28.4330,-82.6670,13.09,1111122 
COMPS,ioos:station:USF.COMPS:ARP:1,2010-04-01T07:30:00Z,28.4330,-82.6670,12.91,1111122 
COMPS,ioos:station:USF.COMPS:ARP:1,2010-04-01T07:36:00Z,28.4330,-82.6670,12.77,1111122 
COMPS,ioos:station:USF.COMPS:ARP:1,2010-04-01T07:42:00Z,28.4330,-82.6670,12.65,1111122 
COMPS,ioos:station:USF.COMPS:ARP:1,2010-04-01T07:48:00Z,28.4330,-82.6670,12.55,1111122 
COMPS,ioos:station:USF.COMPS:ARP:1,2010-04-01T07:54:00Z,28.4330,-82.6670,12.47,1111122 
COMPS,ioos:station:USF.COMPS:ARP:1,2010-04-01T08:00:00Z,28.4330,-82.6670,12.5,1111122 
COMPS,ioos:station:USF.COMPS:ARP:1,2010-04-01T08:06:00Z,28.4330,-82.6670,12.31,1111122 
COMPS,ioos:station:USF.COMPS:ARP:1,2010-04-01T08:12:00Z,28.4330,-82.6670,12.09,1111122 
COMPS,ioos:station:USF.COMPS:ARP:1,2010-04-01T08:18:00Z,28.4330,-82.6670,12.05,1111122 
COMPS,ioos:station:USF.COMPS:ARP:1,2010-04-01T08:24:00Z,28.4330,-82.6670,11.95,1111122 
COMPS,ioos:station:USF.COMPS:ARP:1,2010-04-01T08:30:00Z,28.4330,-82.6670,11.75,1111122 
COMPS,ioos:station:USF.COMPS:ARP:1,2010-04-01T08:36:00Z,28.4330,-82.6670,11.65,1111122 
COMPS,ioos:station:USF.COMPS:ARP:1,2010-04-01T08:42:00Z,28.4330,-82.6670,11.57,1111122 
COMPS,ioos:station:USF.COMPS:ARP:1,2010-04-01T08:48:00Z,28.4330,-82.6670,11.44,1111122 
COMPS,ioos:station:USF.COMPS:ARP:1,2010-04-01T08:54:00Z,28.4330,-82.6670,11.41,1111122 
COMPS,ioos:station:USF.COMPS:ARP:1,2010-04-01T09:00:00Z,28.4330,-82.6670,11.33,1111122 
COMPS,ioos:station:USF.COMPS:ARP:1,2010-04-01T09:06:00Z,28.4330,-82.6670,11.2,1111122 
COMPS,ioos:station:USF.COMPS:ARP:1,2010-04-01T09:12:00Z,28.4330,-82.6670,11.18,1111122 
COMPS,ioos:station:USF.COMPS:ARP:1,2010-04-01T09:18:00Z,28.4330,-82.6670,11.23,1111122 
COMPS,ioos:station:USF.COMPS:ARP:1,2010-04-01T09:24:00Z,28.4330,-82.6670,11.16,1111122 
COMPS,ioos:station:USF.COMPS:ARP:1,2010-04-01T09:30:00Z,28.4330,-82.6670,10.95,1111122 
COMPS,ioos:station:USF.COMPS:ARP:1,2010-04-01T09:36:00Z,28.4330,-82.6670,10.86,1111122 
COMPS,ioos:station:USF.COMPS:ARP:1,2010-04-01T09:42:00Z,28.4330,-82.6670,10.81,1111122 
COMPS,ioos:station:USF.COMPS:ARP:1,2010-04-01T09:48:00Z,28.4330,-82.6670,10.66,1111122 
COMPS,ioos:station:USF.COMPS:ARP:1,2010-04-01T09:54:00Z,28.4330,-82.6670,10.64,1111122 
COMPS,ioos:station:USF.COMPS:ARP:1,2010-04-01T10:00:00Z,28.4330,-82.6670,10.62,1111122 
COMPS,ioos:station:USF.COMPS:ARP:1,2010-04-01T10:06:00Z,28.4330,-82.6670,10.47,1111122 
COMPS,ioos:station:USF.COMPS:ARP:1,2010-04-01T10:12:00Z,28.4330,-82.6670,10.48,1111122 
COMPS,ioos:station:USF.COMPS:ARP:1,2010-04-01T10:18:00Z,28.4330,-82.6670,10.34,1111122 
COMPS,ioos:station:USF.COMPS:ARP:1,2010-04-01T10:24:00Z,28.4330,-82.6670,10.43,1111122 
COMPS,ioos:station:USF.COMPS:ARP:1,2010-04-01T10:30:00Z,28.4330,-82.6670,10.41,1111122 
COMPS,ioos:station:USF.COMPS:ARP:1,2010-04-01T10:36:00Z,28.4330,-82.6670,10.33,1111122 
COMPS,ioos:station:USF.COMPS:ARP:1,2010-04-01T10:42:00Z,28.4330,-82.6670,10.45,1111122 
COMPS,ioos:station:USF.COMPS:ARP:1,2010-04-01T10:48:00Z,28.4330,-82.6670,10.39,1111122 
COMPS,ioos:station:USF.COMPS:ARP:1,2010-04-01T10:54:00Z,28.4330,-82.6670,10.41,1111122 
COMPS,ioos:station:USF.COMPS:ARP:1,2010-04-01T11:00:00Z,28.4330,-82.6670,10.45,1111122 
COMPS,ioos:station:USF.COMPS:ARP:1,2010-04-01T11:06:00Z,28.4330,-82.6670,10.37,1111122 
COMPS,ioos:station:USF.COMPS:ARP:1,2010-04-01T11:12:00Z,28.4330,-82.6670,10.38,1111122 
COMPS,ioos:station:USF.COMPS:ARP:1,2010-04-01T11:18:00Z,28.4330,-82.6670,10.38,1111122 
COMPS,ioos:station:USF.COMPS:ARP:1,2010-04-01T11:24:00Z,28.4330,-82.6670,10.42,1111122 
COMPS,ioos:station:USF.COMPS:ARP:1,2010-04-01T11:30:00Z,28.4330,-82.6670,10.3,1111122 
COMPS,ioos:station:USF.COMPS:ARP:1,2010-04-01T11:36:00Z,28.4330,-82.6670,10.18,1111122 
COMPS,ioos:station:USF.COMPS:ARP:1,2010-04-01T11:42:00Z,28.4330,-82.6670,10.38,1111122 
COMPS,ioos:station:USF.COMPS:ARP:1,2010-04-01T11:48:00Z,28.4330,-82.6670,10.45,1111122 
COMPS,ioos:station:USF.COMPS:ARP:1,2010-04-01T11:54:00Z,28.4330,-82.6670,10.58,1111122 
COMPS,ioos:station:USF.COMPS:ARP:1,2010-04-01T12:00:00Z,28.4330,-82.6670,10.77,1111122 
COMPS,ioos:station:USF.COMPS:ARP:1,2010-04-01T12:06:00Z,28.4330,-82.6670,10.98,1111122 
COMPS,ioos:station:USF.COMPS:ARP:1,2010-04-01T12:12:00Z,28.4330,-82.6670,11.18,1111122 
COMPS,ioos:station:USF.COMPS:ARP:1,2010-04-01T12:18:00Z,28.4330,-82.6670,11.51,1111122 
COMPS,ioos:station:USF.COMPS:ARP:1,2010-04-01T12:24:00Z,28.4330,-82.6670,11.94,1111122 
COMPS,ioos:station:USF.COMPS:ARP:1,2010-04-01T12:30:00Z,28.4330,-82.6670,12.25,1111122 
COMPS,ioos:station:USF.COMPS:ARP:1,2010-04-01T12:36:00Z,28.4330,-82.6670,12.52,1111122 
COMPS,ioos:station:USF.COMPS:ARP:1,2010-04-01T12:42:00Z,28.4330,-82.6670,13.02,1111122 
COMPS,ioos:station:USF.COMPS:ARP:1,2010-04-01T12:48:00Z,28.4330,-82.6670,13.64,1111122 
COMPS,ioos:station:USF.COMPS:ARP:1,2010-04-01T12:54:00Z,28.4330,-82.6670,14.21,1111122 
COMPS,ioos:station:USF.COMPS:ARP:1,2010-04-01T13:00:00Z,28.4330,-82.6670,14.58,1111122 
COMPS,ioos:station:USF.COMPS:ARP:1,2010-04-01T13:06:00Z,28.4330,-82.6670,14.87,1111122 
COMPS,ioos:station:USF.COMPS:ARP:1,2010-04-01T13:12:00Z,28.4330,-82.6670,15.33,1111122 
COMPS,ioos:station:USF.COMPS:ARP:1,2010-04-01T13:18:00Z,28.4330,-82.6670,15.81,1111122 
COMPS,ioos:station:USF.COMPS:ARP:1,2010-04-01T13:24:00Z,28.4330,-82.6670,16.17,1111122 
COMPS,ioos:station:USF.COMPS:ARP:1,2010-04-01T13:30:00Z,28.4330,-82.6670,16.51,1111122 
COMPS,ioos:station:USF.COMPS:ARP:1,2010-04-01T13:36:00Z,28.4330,-82.6670,16.87,1111122 
COMPS,ioos:station:USF.COMPS:ARP:1,2010-04-01T13:42:00Z,28.4330,-82.6670,17.07,1111122 
COMPS,ioos:station:USF.COMPS:ARP:1,2010-04-01T13:48:00Z,28.4330,-82.6670,17.15,1111122 
COMPS,ioos:station:USF.COMPS:ARP:1,2010-04-01T13:54:00Z,28.4330,-82.6670,17.34,1111122 
COMPS,ioos:station:USF.COMPS:ARP:1,2010-04-01T14:00:00Z,28.4330,-82.6670,17.48,1111122 
COMPS,ioos:station:USF.COMPS:ARP:1,2010-04-01T14:06:00Z,28.4330,-82.6670,17.7,1111122 
COMPS,ioos:station:USF.COMPS:ARP:1,2010-04-01T14:12:00Z,28.4330,-82.6670,17.98,1111122 
COMPS,ioos:station:USF.COMPS:ARP:1,2010-04-01T14:18:00Z,28.4330,-82.6670,18.2,1111122 
COMPS,ioos:station:USF.COMPS:ARP:1,2010-04-01T14:24:00Z,28.4330,-82.6670,18.43,1111122 
COMPS,ioos:station:USF.COMPS:ARP:1,2010-04-01T14:30:00Z,28.4330,-82.6670,18.72,1111122 
COMPS,ioos:station:USF.COMPS:ARP:1,2010-04-01T14:36:00Z,28.4330,-82.6670,18.92,1111122 
COMPS,ioos:station:USF.COMPS:ARP:1,2010-04-01T14:42:00Z,28.4330,-82.6670,19.12,1111122 
COMPS,ioos:station:USF.COMPS:ARP:1,2010-04-01T14:48:00Z,28.4330,-82.6670,19.23,1111122 
COMPS,ioos:station:USF.COMPS:ARP:1,2010-04-01T14:54:00Z,28.4330,-82.6670,18.95,1111122 
COMPS,ioos:station:USF.COMPS:ARP:1,2010-04-01T15:00:00Z,28.4330,-82.6670,18.31,1111122 
COMPS,ioos:station:USF.COMPS:ARP:1,2010-04-01T15:06:00Z,28.4330,-82.6670,18.42,1111122 
COMPS,ioos:station:USF.COMPS:ARP:1,2010-04-01T15:12:00Z,28.4330,-82.6670,18.31,1111122 
COMPS,ioos:station:USF.COMPS:ARP:1,2010-04-01T15:18:00Z,28.4330,-82.6670,18.8,1111122 
COMPS,ioos:station:USF.COMPS:ARP:1,2010-04-01T15:24:00Z,28.4330,-82.6670,19.0,1111122 
COMPS,ioos:station:USF.COMPS:ARP:1,2010-04-01T15:30:00Z,28.4330,-82.6670,18.5,1111122 
COMPS,ioos:station:USF.COMPS:ARP:1,2010-04-01T15:36:00Z,28.4330,-82.6670,18.56,1111122 
COMPS,ioos:station:USF.COMPS:ARP:1,2010-04-01T15:42:00Z,28.4330,-82.6670,18.81,1111122 
COMPS,ioos:station:USF.COMPS:ARP:1,2010-04-01T15:48:00Z,28.4330,-82.6670,19.03,1111122 
COMPS,ioos:station:USF.COMPS:ARP:1,2010-04-01T15:54:00Z,28.4330,-82.6670,19.27,1111122 
COMPS,ioos:station:USF.COMPS:ARP:1,2010-04-01T16:00:00Z,28.4330,-82.6670,19.33,1111122 
COMPS,ioos:station:USF.COMPS:ARP:1,2010-04-01T16:06:00Z,28.4330,-82.6670,19.11,1111122 
COMPS,ioos:station:USF.COMPS:ARP:1,2010-04-01T16:12:00Z,28.4330,-82.6670,19.42,1111122 
COMPS,ioos:station:USF.COMPS:ARP:1,2010-04-01T16:18:00Z,28.4330,-82.6670,19.33,1111122 
COMPS,ioos:station:USF.COMPS:ARP:1,2010-04-01T16:24:00Z,28.4330,-82.6670,19.31,1111122 
COMPS,ioos:station:USF.COMPS:ARP:1,2010-04-01T16:30:00Z,28.4330,-82.6670,19.36,1111122 
COMPS,ioos:station:USF.COMPS:ARP:1,2010-04-01T16:36:00Z,28.4330,-82.6670,19.29,1111122 
COMPS,ioos:station:USF.COMPS:ARP:1,2010-04-01T16:42:00Z,28.4330,-82.6670,19.39,1111122 
COMPS,ioos:station:USF.COMPS:ARP:1,2010-04-01T16:48:00Z,28.4330,-82.6670,19.36,1111122 
COMPS,ioos:station:USF.COMPS:ARP:1,2010-04-01T16:54:00Z,28.4330,-82.6670,19.25,1111122 
COMPS,ioos:station:USF.COMPS:ARP:1,2010-04-01T17:00:00Z,28.4330,-82.6670,19.18,1111122 
COMPS,ioos:station:USF.COMPS:ARP:1,2010-04-01T17:06:00Z,28.4330,-82.6670,19.09,1111122 
COMPS,ioos:station:USF.COMPS:ARP:1,2010-04-01T17:12:00Z,28.4330,-82.6670,19.06,1111122 
COMPS,ioos:station:USF.COMPS:ARP:1,2010-04-01T17:18:00Z,28.4330,-82.6670,19.09,1111122 
COMPS,ioos:station:USF.COMPS:ARP:1,2010-04-01T17:24:00Z,28.4330,-82.6670,19.18,1111122 
COMPS,ioos:station:USF.COMPS:ARP:1,2010-04-01T17:30:00Z,28.4330,-82.6670,19.24,1111122 
COMPS,ioos:station:USF.COMPS:ARP:1,2010-04-01T17:36:00Z,28.4330,-82.6670,19.31,1111122 
COMPS,ioos:station:USF.COMPS:ARP:1,2010-04-01T17:42:00Z,28.4330,-82.6670,19.18,1111122 
COMPS,ioos:station:USF.COMPS:ARP:1,2010-04-01T17:48:00Z,28.4330,-82.6670,19.27,1111122 
COMPS,ioos:station:USF.COMPS:ARP:1,2010-04-01T17:54:00Z,28.4330,-82.6670,19.3,1111122 
COMPS,ioos:station:USF.COMPS:ARP:1,2010-04-01T18:00:00Z,28.4330,-82.6670,19.27,1111122 
COMPS,ioos:station:USF.COMPS:ARP:1,2010-04-01T18:06:00Z,28.4330,-82.6670,19.24,1111122 
COMPS,ioos:station:USF.COMPS:ARP:1,2010-04-01T18:12:00Z,28.4330,-82.6670,19.34,1111122 
COMPS,ioos:station:USF.COMPS:ARP:1,2010-04-01T18:18:00Z,28.4330,-82.6670,19.31,1111122 
COMPS,ioos:station:USF.COMPS:ARP:1,2010-04-01T18:24:00Z,28.4330,-82.6670,19.31,1111122 
COMPS,ioos:station:USF.COMPS:ARP:1,2010-04-01T18:30:00Z,28.4330,-82.6670,19.33,1111122 
COMPS,ioos:station:USF.COMPS:ARP:1,2010-04-01T18:36:00Z,28.4330,-82.6670,19.33,1111122 
COMPS,ioos:station:USF.COMPS:ARP:1,2010-04-01T18:42:00Z,28.4330,-82.6670,19.36,1111122 
COMPS,ioos:station:USF.COMPS:ARP:1,2010-04-01T18:48:00Z,28.4330,-82.6670,19.39,1111122 
COMPS,ioos:station:USF.COMPS:ARP:1,2010-04-01T18:54:00Z,28.4330,-82.6670,19.27,1111122 
COMPS,ioos:station:USF.COMPS:ARP:1,2010-04-01T19:00:00Z,28.4330,-82.6670,19.38,1111122 
COMPS,ioos:station:USF.COMPS:ARP:1,2010-04-01T19:06:00Z,28.4330,-82.6670,19.41,1111122 
COMPS,ioos:station:USF.COMPS:ARP:1,2010-04-01T19:12:00Z,28.4330,-82.6670,19.45,1111122 
COMPS,ioos:station:USF.COMPS:ARP:1,2010-04-01T19:18:00Z,28.4330,-82.6670,19.45,1111122 
COMPS,ioos:station:USF.COMPS:ARP:1,2010-04-01T19:24:00Z,28.4330,-82.6670,19.44,1111122 
COMPS,ioos:station:USF.COMPS:ARP:1,2010-04-01T19:30:00Z,28.4330,-82.6670,19.5,1111122 
COMPS,ioos:station:USF.COMPS:ARP:1,2010-04-01T19:36:00Z,28.4330,-82.6670,19.49,1111122 
COMPS,ioos:station:USF.COMPS:ARP:1,2010-04-01T19:42:00Z,28.4330,-82.6670,19.6,1111122 
COMPS,ioos:station:USF.COMPS:ARP:1,2010-04-01T19:48:00Z,28.4330,-82.6670,19.59,1111122 
COMPS,ioos:station:USF.COMPS:ARP:1,2010-04-01T19:54:00Z,28.4330,-82.6670,19.71,1111122 
COMPS,ioos:station:USF.COMPS:ARP:1,2010-04-01T20:00:00Z,28.4330,-82.6670,19.67,1111122 
COMPS,ioos:station:USF.COMPS:ARP:1,2010-04-01T20:06:00Z,28.4330,-82.6670,19.69,1111122 
COMPS,ioos:station:USF.COMPS:ARP:1,2010-04-01T20:12:00Z,28.4330,-82.6670,19.63,1111122 
COMPS,ioos:station:USF.COMPS:ARP:1,2010-04-01T20:18:00Z,28.4330,-82.6670,19.74,1111122 
COMPS,ioos:station:USF.COMPS:ARP:1,2010-04-01T20:24:00Z,28.4330,-82.6670,19.67,1111122 
COMPS,ioos:station:USF.COMPS:ARP:1,2010-04-01T20:30:00Z,28.4330,-82.6670,19.66,1111122 
COMPS,ioos:station:USF.COMPS:ARP:1,2010-04-01T20:36:00Z,28.4330,-82.6670,19.75,1111122 
COMPS,ioos:station:USF.COMPS:ARP:1,2010-04-01T20:42:00Z,28.4330,-82.6670,19.73,1111122 
COMPS,ioos:station:USF.COMPS:ARP:1,2010-04-01T20:48:00Z,28.4330,-82.6670,19.77,1111122 
COMPS,ioos:station:USF.COMPS:ARP:1,2010-04-01T20:54:00Z,28.4330,-82.6670,19.81,1111122 
COMPS,ioos:station:USF.COMPS:ARP:1,2010-04-01T21:00:00Z,28.4330,-82.6670,19.76,1111122 
COMPS,ioos:station:USF.COMPS:ARP:1,2010-04-01T21:06:00Z,28.4330,-82.6670,19.78,1111122 
COMPS,ioos:station:USF.COMPS:ARP:1,2010-04-01T21:12:00Z,28.4330,-82.6670,19.92,1111122 
COMPS,ioos:station:USF.COMPS:ARP:1,2010-04-01T21:18:00Z,28.4330,-82.6670,19.7,1111122 
COMPS,ioos:station:USF.COMPS:ARP:1,2010-04-01T21:24:00Z,28.4330,-82.6670,19.56,1111122 
COMPS,ioos:station:USF.COMPS:ARP:1,2010-04-01T21:30:00Z,28.4330,-82.6670,19.66,1111122 
COMPS,ioos:station:USF.COMPS:ARP:1,2010-04-01T21:36:00Z,28.4330,-82.6670,19.66,1111122 
COMPS,ioos:station:USF.COMPS:ARP:1,2010-04-01T21:42:00Z,28.4330,-82.6670,19.53,1111122 
COMPS,ioos:station:USF.COMPS:ARP:1,2010-04-01T21:48:00Z,28.4330,-82.6670,19.48,1111122 
COMPS,ioos:station:USF.COMPS:ARP:1,2010-04-01T21:54:00Z,28.4330,-82.6670,19.53,1111122 
COMPS,ioos:station:USF.COMPS:ARP:1,2010-04-01T22:00:00Z,28.4330,-82.6670,19.48,1111122 
COMPS,ioos:station:USF.COMPS:ARP:1,2010-04-01T22:06:00Z,28.4330,-82.6670,19.47,1111122 
COMPS,ioos:station:USF.COMPS:ARP:1,2010-04-01T22:12:00Z,28.4330,-82.6670,19.38,1111122 
COMPS,ioos:station:USF.COMPS:ARP:1,2010-04-01T22:18:00Z,28.4330,-82.6670,19.33,1111122 
COMPS,ioos:station:USF.COMPS:ARP:1,2010-04-01T22:24:00Z,28.4330,-82.6670,19.41,1111122 
COMPS,ioos:station:USF.COMPS:ARP:1,2010-04-01T22:30:00Z,28.4330,-82.6670,19.43,1111122 
COMPS,ioos:station:USF.COMPS:ARP:1,2010-04-01T22:36:00Z,28.4330,-82.6670,19.33,1111122 
COMPS,ioos:station:USF.COMPS:ARP:1,2010-04-01T22:42:00Z,28.4330,-82.6670,19.32,1111122 
COMPS,ioos:station:USF.COMPS:ARP:1,2010-04-01T22:48:00Z,28.4330,-82.6670,19.3,1111122 
COMPS,ioos:station:USF.COMPS:ARP:1,2010-04-01T22:54:00Z,28.4330,-82.6670,19.27,1111122 
COMPS,ioos:station:USF.COMPS:ARP:1,2010-04-01T23:00:00Z,28.4330,-82.6670,19.3,1111122 
COMPS,ioos:station:USF.COMPS:ARP:1,2010-04-01T23:06:00Z,28.4330,-82.6670,19.27,1111122 
COMPS,ioos:station:USF.COMPS:ARP:1,2010-04-01T23:12:00Z,28.4330,-82.6670,19.22,1111122 
COMPS,ioos:station:USF.COMPS:ARP:1,2010-04-01T23:18:00Z,28.4330,-82.6670,19.15,1111122 
COMPS,ioos:station:USF.COMPS:ARP:1,2010-04-01T23:24:00Z,28.4330,-82.6670,19.12,1111122 
COMPS,ioos:station:USF.COMPS:ARP:1,2010-04-01T23:30:00Z,28.4330,-82.6670,19.16,1111122 
COMPS,ioos:station:USF.COMPS:ARP:1,2010-04-01T23:36:00Z,28.4330,-82.6670,19.07,1111122 
COMPS,ioos:station:USF.COMPS:ARP:1,2010-04-01T23:42:00Z,28.4330,-82.6670,18.92,1111122 
COMPS,ioos:station:USF.COMPS:ARP:1,2010-04-01T23:48:00Z,28.4330,-82.6670,18.85,1111122 
COMPS,ioos:station:USF.COMPS:ARP:1,2010-04-01T23:54:00Z,28.4330,-82.6670,18.88,1111122 
COMPS,ioos:station:USF.COMPS:ARP:1,2010-04-02T00:00:00Z,28.4330,-82.6670,18.69,1111122 
COMPS,ioos:station:USF.COMPS:ARP:1,2010-04-02T00:06:00Z,28.4330,-82.6670,18.72,1111122 
COMPS,ioos:station:USF.COMPS:ARP:1,2010-04-02T00:12:00Z,28.4330,-82.6670,18.64,1111122 
COMPS,ioos:station:USF.COMPS:ARP:1,2010-04-02T00:18:00Z,28.4330,-82.6670,18.62,1111122 
COMPS,ioos:station:USF.COMPS:ARP:1,2010-04-02T00:24:00Z,28.4330,-82.6670,18.48,1111122 
COMPS,ioos:station:USF.COMPS:ARP:1,2010-04-02T00:30:00Z,28.4330,-82.6670,18.48,1111122 
COMPS,ioos:station:USF.COMPS:ARP:1,2010-04-02T00:36:00Z,28.4330,-82.6670,18.48,1111122 
COMPS,ioos:station:USF.COMPS:ARP:1,2010-04-02T00:42:00Z,28.4330,-82.6670,18.48,1111122 
COMPS,ioos:station:USF.COMPS:ARP:1,2010-04-02T00:48:00Z,28.4330,-82.6670,18.48,1111122 
COMPS,ioos:station:USF.COMPS:ARP:1,2010-04-02T00:54:00Z,28.4330,-82.6670,18.51,1111122 
COMPS,ioos:station:USF.COMPS:ARP:1,2010-04-02T01:00:00Z,28.4330,-82.6670,18.37,1111122 
COMPS,ioos:station:USF.COMPS:ARP:1,2010-04-02T01:06:00Z,28.4330,-82.6670,18.24,1111122 
COMPS,ioos:station:USF.COMPS:ARP:1,2010-04-02T01:12:00Z,28.4330,-82.6670,18.0,1111122 
COMPS,ioos:station:USF.COMPS:ARP:1,2010-04-02T01:18:00Z,28.4330,-82.6670,17.31,1111122 
COMPS,ioos:station:USF.COMPS:ARP:1,2010-04-02T01:24:00Z,28.4330,-82.6670,16.65,1111122 
COMPS,ioos:station:USF.COMPS:ARP:1,2010-04-02T01:30:00Z,28.4330,-82.6670,16.5,1111122 
COMPS,ioos:station:USF.COMPS:ARP:1,2010-04-02T01:36:00Z,28.4330,-82.6670,16.23,1111122 
COMPS,ioos:station:USF.COMPS:ARP:1,2010-04-02T01:42:00Z,28.4330,-82.6670,16.06,1111122 
COMPS,ioos:station:USF.COMPS:ARP:1,2010-04-02T01:48:00Z,28.4330,-82.6670,15.81,1111122 
COMPS,ioos:station:USF.COMPS:ARP:1,2010-04-02T01:54:00Z,28.4330,-82.6670,15.59,1111122 
COMPS,ioos:station:USF.COMPS:ARP:1,2010-04-02T02:00:00Z,28.4330,-82.6670,15.51,1111122 
COMPS,ioos:station:USF.COMPS:ARP:1,2010-04-02T02:06:00Z,28.4330,-82.6670,15.39,1111122 
COMPS,ioos:station:USF.COMPS:ARP:1,2010-04-02T02:12:00Z,28.4330,-82.6670,15.25,1111122 
COMPS,ioos:station:USF.COMPS:ARP:1,2010-04-02T02:18:00Z,28.4330,-82.6670,15.11,1111122 
COMPS,ioos:station:USF.COMPS:ARP:1,2010-04-02T02:24:00Z,28.4330,-82.6670,15.02,1111122 
COMPS,ioos:station:USF.COMPS:ARP:1,2010-04-02T02:30:00Z,28.4330,-82.6670,14.99,1111122 
COMPS,ioos:station:USF.COMPS:ARP:1,2010-04-02T02:36:00Z,28.4330,-82.6670,14.84,1111122 
COMPS,ioos:station:USF.COMPS:ARP:1,2010-04-02T02:42:00Z,28.4330,-82.6670,14.69,1111122 
COMPS,ioos:station:USF.COMPS:ARP:1,2010-04-02T02:48:00Z,28.4330,-82.6670,14.57,1111122 
COMPS,ioos:station:USF.COMPS:ARP:1,2010-04-02T02:54:00Z,28.4330,-82.6670,14.55,1111122 
COMPS,ioos:station:USF.COMPS:ARP:1,2010-04-02T03:00:00Z,28.4330,-82.6670,14.53,1111122 
COMPS,ioos:station:USF.COMPS:ARP:1,2010-04-02T03:06:00Z,28.4330,-82.6670,14.45,1111122 